Weather History for Rantoul, IL

Change the Weather History Date:

Monday, January 21, 2013

  Actual Average (KCMI) Record (KCMI)
Temperature  
Mean Temperature 14 °F 25 °F  
Max Temperature 20 °F 34 °F 45 °F (1999)
Min Temperature 7 °F 17 °F -11 °F (2011)
Degree Days  
Heating Degree Days 52 40  
Month to date heating degree days 836  
Since 1 July heating degree days 3117  
Cooling Degree Days 0 0  
Month to date cooling degree days 0  
Year to date cooling degree days 0  
Moisture  
Dew Point 3 °F    
Average Humidity 62    
Maximum Humidity 83    
Minimum Humidity 40    
Precipitation  
Precipitation 0.00 in 0.05 in 0.23 in (1999)
Month to date precipitation 1.53  
Year to date precipitation 1.53  
Sea Level Pressure  
Sea Level Pressure 30.25 in    
Wind  
Wind Speed 15 mph (WNW)    
Max Wind Speed 25 mph    
Max Gust Speed 31 mph    
Visibility 9 miles    
Events Snow    
T = Trace of Precipitation, MM = Missing Value Source: NWS Daily Summary

Daily Weather History Graph

Daily Weather History Graph

Search for Another Location

Airport:

Trip Planner

Search our weather history database for the weather conditions in past years. The results will help you decide how hot, cold, wet, or windy it might be!

Date:

Astronomy

Jan. 21, 2013 Rise Set
Actual Time 7:10 AM CST 4:58 PM CST
Civil Twilight 6:40 AM CST 5:27 PM CST
Nautical Twilight 6:07 AM CST 6:00 PM CST
Astronomical Twilight 5:35 AM CST 6:33 PM CST
Moon 12:37 PM CST (1/21) 2:38 AM CST (1/21)
Length of Visible Light 10h 47m
Length of Day
9h 48m
Waxing Gibbous, 75% of the Moon is Illuminated
Jan 21
Waxing Gibbous
Jan 26
Full
Feb 3
Last Quarter
Feb 10
New
Feb 17
First Quarter

Hourly Weather History & Observations

Time (CST) Temp. Windchill Dew Point Humidity Pressure Visibility Wind Dir Wind Speed Gust Speed Precip Events Conditions
12:15 AM 20.3 °F 9.8 °F 13.5 °F 75% 30.22 in 10.0 mi WNW 9.2 mph - N/A   Overcast
12:35 AM 20.5 °F 8.0 °F 14.0 °F 76% 30.22 in 10.0 mi WNW 12.7 mph - N/A Snow Light Snow
12:55 AM 20.3 °F 8.3 °F 14.7 °F 79% 30.21 in 10.0 mi WNW 11.5 mph 16.1 mph N/A Snow Light Snow
1:15 AM 19.9 °F 7.9 °F 13.5 °F 76% 30.21 in 10.0 mi NW 11.5 mph - N/A Snow Light Snow
1:35 AM 19.9 °F 8.6 °F 12.9 °F 74% 30.22 in 10.0 mi WNW 10.4 mph - N/A Snow Light Snow
1:55 AM 19.9 °F 6.2 °F 12.4 °F 72% 30.22 in 7.0 mi West 15.0 mph - N/A Snow Light Snow
2:15 AM 19.2 °F 7.7 °F 10.6 °F 69% 30.21 in 10.0 mi WNW 10.4 mph - N/A   Overcast
2:35 AM 18.9 °F 6.5 °F 11.7 °F 74% 30.21 in 10.0 mi WNW 11.5 mph - N/A Snow Light Snow
2:55 AM 18.5 °F 4.9 °F 10.9 °F 72% 30.21 in 7.0 mi WNW 13.8 mph 18.4 mph N/A Snow Light Snow
3:15 AM 17.6 °F 3.2 °F 10.0 °F 72% 30.21 in 10.0 mi WNW 15.0 mph 19.6 mph N/A   Mostly Cloudy
3:35 AM 17.6 °F 3.7 °F 10.4 °F 73% 30.21 in 10.0 mi WNW 13.8 mph - N/A   Overcast
3:55 AM 17.4 °F 2.9 °F 10.0 °F 73% 30.20 in 10.0 mi WNW 15.0 mph - N/A Snow Light Snow
4:15 AM 17.1 °F 3.0 °F 10.4 °F 75% 30.20 in 5.0 mi WNW 13.8 mph - N/A Snow Light Snow
4:35 AM 17.2 °F 4.5 °F 11.1 °F 77% 30.19 in 10.0 mi West 11.5 mph - N/A   Overcast
4:55 AM 17.6 °F 1.3 °F 11.3 °F 76% 30.19 in 10.0 mi West 19.6 mph 24.2 mph N/A   Overcast
5:15 AM 16.3 °F -0.4 °F 9.3 °F 74% 30.20 in 10.0 mi West 19.6 mph 26.5 mph N/A   Overcast
5:35 AM 15.8 °F -1.5 °F 8.6 °F 73% 30.20 in 10.0 mi West 20.7 mph 24.2 mph N/A   Mostly Cloudy
5:55 AM 15.8 °F 0.3 °F 9.5 °F 76% 30.20 in 7.0 mi West 16.1 mph - N/A Snow Light Snow
6:15 AM 15.4 °F -1.1 °F 8.6 °F 74% 30.20 in 7.0 mi West 18.4 mph 23.0 mph N/A Snow Light Snow
6:35 AM 14.7 °F -2.0 °F 8.1 °F 75% 30.20 in 7.0 mi West 18.4 mph - N/A   Overcast
6:55 AM 14.2 °F -3.2 °F 9.3 °F 81% 30.21 in 2.0 mi West 19.6 mph 25.3 mph N/A Snow Light Snow
7:15 AM 14.0 °F -2.0 °F 9.7 °F 83% 30.21 in 1.8 mi West 16.1 mph - N/A Snow Light Snow
7:35 AM 13.6 °F -4.8 °F 6.6 °F 74% 30.21 in 10.0 mi West 21.9 mph 26.5 mph N/A   Overcast
7:55 AM 13.6 °F -4.4 °F 6.8 °F 74% 30.21 in 7.0 mi West 20.7 mph 25.3 mph N/A   Overcast
8:35 AM 13.1 °F -5.5 °F 5.0 °F 70% 30.22 in 5.0 mi West 21.9 mph - N/A   Haze
8:55 AM 14.5 °F -2.7 °F 5.7 °F 68% 30.23 in 10.0 mi WNW 19.6 mph 26.5 mph N/A   Scattered Clouds
9:15 AM 14.7 °F -3.8 °F 4.3 °F 63% 30.24 in 10.0 mi WNW 23.0 mph - N/A   Scattered Clouds
9:35 AM 15.8 °F -2.3 °F 5.0 °F 62% 30.24 in 10.0 mi West 23.0 mph 27.6 mph N/A   Scattered Clouds
9:55 AM 13.8 °F -4.1 °F 1.6 °F 58% 30.25 in 10.0 mi WNW 20.7 mph 29.9 mph N/A   Scattered Clouds
10:15 AM 13.8 °F -4.1 °F 2.7 °F 61% 30.24 in 10.0 mi WNW 20.7 mph 27.6 mph N/A   Scattered Clouds
10:35 AM 14.0 °F -3.9 °F 2.8 °F 61% 30.25 in 10.0 mi West 20.7 mph 27.6 mph N/A   Mostly Cloudy
10:55 AM 14.5 °F -3.2 °F 1.8 °F 57% 30.25 in 10.0 mi WNW 20.7 mph 27.6 mph N/A   Scattered Clouds
11:15 AM 13.5 °F -5.0 °F 0.5 °F 56% 30.24 in 10.0 mi WNW 21.9 mph 28.8 mph N/A   Scattered Clouds
11:35 AM 13.3 °F -4.4 °F 1.2 °F 59% 30.25 in 10.0 mi WNW 19.6 mph 27.6 mph N/A   Scattered Clouds
11:55 AM 14.0 °F -4.3 °F 0.7 °F 56% 30.24 in 10.0 mi West 21.9 mph 25.3 mph N/A   Mostly Cloudy
12:15 PM 15.6 °F -2.2 °F 1.2 °F 53% 30.24 in 10.0 mi WNW 21.9 mph 26.5 mph N/A   Scattered Clouds
12:35 PM 16.7 °F -1.5 °F 1.6 °F 52% 30.24 in 10.0 mi WNW 24.2 mph 31.1 mph N/A   Mostly Cloudy
12:55 PM 16.7 °F -1.8 °F 0.1 °F 48% 30.24 in 10.0 mi WNW 25.3 mph 31.1 mph N/A   Mostly Cloudy
1:15 PM 16.0 °F -1.3 °F -1.7 °F 46% 30.24 in 10.0 mi WNW 20.7 mph 31.1 mph N/A   Scattered Clouds
1:35 PM 15.6 °F -2.6 °F -2.4 °F 45% 30.24 in 10.0 mi WNW 23.0 mph 29.9 mph N/A   Clear
1:55 PM 16.0 °F -1.7 °F -4.2 °F 41% 30.24 in 10.0 mi NW 21.9 mph 27.6 mph N/A   Clear
2:15 PM 15.4 °F -0.6 °F -4.7 °F 41% 30.25 in 10.0 mi WNW 17.3 mph 29.9 mph N/A   Clear
2:35 PM 15.6 °F -1.8 °F -3.8 °F 42% 30.25 in 10.0 mi WNW 20.7 mph 26.5 mph N/A   Clear
2:55 PM 15.4 °F -0.6 °F -4.9 °F 40% 30.26 in 10.0 mi WNW 17.3 mph 31.1 mph N/A   Clear
3:15 PM 16.0 °F -2.1 °F -4.0 °F 41% 30.26 in 10.0 mi WNW 23.0 mph 28.8 mph N/A   Clear
3:35 PM 16.0 °F 0.1 °F -3.6 °F 42% 30.26 in 10.0 mi West 17.3 mph 21.9 mph N/A   Clear
3:55 PM 15.6 °F -0.4 °F -4.0 °F 42% 30.26 in 10.0 mi WNW 17.3 mph - N/A   Clear
4:15 PM 15.1 °F -1.6 °F -4.5 °F 42% 30.26 in 10.0 mi West 18.4 mph 25.3 mph N/A   Clear
4:35 PM 14.7 °F -1.6 °F -3.8 °F 44% 30.26 in 10.0 mi WNW 17.3 mph 24.2 mph N/A   Clear
4:55 PM 14.0 °F -2.0 °F -4.0 °F 45% 30.27 in 10.0 mi WNW 16.1 mph - N/A   Clear
5:15 PM 13.6 °F -2.4 °F -4.0 °F 45% 30.27 in 10.0 mi West 16.1 mph - N/A   Clear
5:35 PM 13.1 °F -0.7 °F -3.6 °F 47% 30.27 in 10.0 mi West 11.5 mph - N/A   Clear
5:55 PM 12.9 °F -0.9 °F -2.2 °F 51% 30.27 in 10.0 mi West 11.5 mph - N/A   Clear
6:15 PM 12.6 °F -2.7 °F -1.5 °F 54% 30.27 in 10.0 mi West 13.8 mph 17.3 mph N/A   Clear
6:35 PM 12.2 °F -1.8 °F -0.4 °F 57% 30.28 in 10.0 mi West 11.5 mph - N/A   Clear
6:55 PM 11.8 °F -1.5 °F -0.9 °F 57% 30.28 in 10.0 mi WNW 10.4 mph - N/A   Clear
7:15 PM 11.5 °F -2.7 °F -1.5 °F 56% 30.28 in 10.0 mi West 11.5 mph - N/A   Clear
7:35 PM 11.1 °F -2.4 °F -0.9 °F 58% 30.29 in 10.0 mi West 10.4 mph - N/A   Clear
7:55 PM 10.8 °F -2.0 °F 0.1 °F 62% 30.29 in 10.0 mi West 9.2 mph - N/A   Clear
8:15 PM 10.8 °F -6.2 °F 0.5 °F 63% 30.30 in 10.0 mi West 16.1 mph 20.7 mph N/A   Clear
8:35 PM 10.4 °F -6.6 °F -0.0 °F 63% 30.31 in 10.0 mi West 16.1 mph - N/A   Clear
8:55 PM 9.9 °F -6.7 °F 0.3 °F 65% 30.31 in 10.0 mi West 15.0 mph - N/A   Clear
9:15 PM 9.5 °F -6.6 °F 0.5 °F 67% 30.31 in 10.0 mi West 13.8 mph - N/A   Clear
9:35 PM 9.1 °F -8.2 °F 0.3 °F 67% 30.32 in 10.0 mi West 16.1 mph 20.7 mph N/A   Clear
9:55 PM 8.6 °F -7.7 °F -0.0 °F 68% 30.32 in 10.0 mi West 13.8 mph - N/A   Clear
10:15 PM 8.6 °F -9.5 °F -0.4 °F 67% 30.33 in 10.0 mi West 17.3 mph - N/A   Clear
10:35 PM 8.2 °F -8.8 °F -0.6 °F 67% 30.33 in 10.0 mi West 15.0 mph 18.4 mph N/A   Clear
10:55 PM 7.9 °F -9.3 °F -1.3 °F 66% 30.33 in 10.0 mi West 15.0 mph - N/A   Clear
11:15 PM 8.6 °F -7.7 °F -0.4 °F 67% 30.33 in 10.0 mi West 13.8 mph - N/A   Clear
11:35 PM 7.5 °F -9.1 °F -0.9 °F 68% 30.33 in 10.0 mi West 13.8 mph - N/A   Clear
11:55 PM 7.3 °F -7.9 °F -1.3 °F 68% 30.32 in 10.0 mi West 11.5 mph - N/A   Clear